User: anonymous   Login
Location: Sawmill Trailhead
(33.5800°N, 116.4497°W)
Time: 07:17:51
(UTC-08:00)
Language:

Uosat F - Orbit

View from above orbital plane
View from above orbital plane
View from above satellite
View from above satellite

Ground track
Ground track

The orbit data is extracted from the following two-line orbital elements,

1 21575U 91050B   17023.07726955  .00000024  00000-0  22073-4 0  9993
2 21575  98.7624  35.9803 0007631  20.3910 339.7581 14.40780324340385
Epoch (UTC): 23 January 2017 01:51:16
Eccentricity: 0.0007631
inclination: 98.7624°
perigee height: 750 km
apogee height: 761 km
right ascension of ascending node: 35.9803°
argument of perigee: 20.3910°
revolutions per day: 14.40780324
mean anomaly at epoch: 339.7581°
orbit number at epoch: 34038

The dashed part of the orbit path shows where the satellite is in the earth's shadow,  

DLR